Ottumwa, IA

8:15 AM CDT on June 23, 2017 (GMT -0500)
Ottumwa Industrial

Weather History for KOTM - July, 2014

Change the Weather History Date:

Thursday, July 10, 2014

  Actual Average Record
Temperature  
Mean Temperature 70 °F 75 °F  
Max Temperature 80 °F 86 °F 106 °F (1901)
Min Temperature 59 °F 65 °F 50 °F (1945)
Degree Days  
Heating Degree Days 0 0  
Month to date heating degree days 7 0  
Since 1 June heating degree days 16 21  
Since 1 July heating degree days 7 0  
Cooling Degree Days 5 10  
Month to date cooling degree days 50 100  
Year to date cooling degree days 375 365  
Since 1 June cooling degree days 264 301  
Growing Degree Days 20 (Base 50)    
Moisture  
Dew Point 59 °F    
Average Humidity 68    
Maximum Humidity 90    
Minimum Humidity 45    
Precipitation  
Precipitation 0.00 in 0.14 in 1.25 in (1902)
Month to date precipitation 1.78 1.55  
Year to date precipitation 20.64 19.17  
Sea Level Pressure  
Sea Level Pressure 30.09 in    
Wind  
Wind Speed 8 mph (SSE)    
Max Wind Speed 15 mph    
Max Gust Speed 20 mph    
Visibility 10 miles    
Events      
T = Trace of Precipitation, MM = Missing Value Source: NWS Daily Summary

Daily Weather History Graph

Daily Weather History Graph

Search for Another Location

Airport or City:

Trip Planner

Search our weather history database for the weather conditions in past years. The results will help you decide how hot, cold, wet, or windy it might be!

Date:

Astronomy

Jul. 10, 2014 Rise Set
Actual Time 5:46 AM CDT 8:43 PM CDT
Civil Twilight 5:13 AM CDT 9:16 PM CDT
Nautical Twilight 4:31 AM CDT 9:58 PM CDT
Astronomical Twilight 3:42 AM CDT 10:46 PM CDT
Moon 6:56 PM CDT (7/10) 3:58 AM CDT (7/10)
Length of Visible Light 16h 02m
Length of Day
14h 56m
Waxing Gibbous, 95% of the Moon is Illuminated
Jul 10
Waxing Gibbous
Jul 12
Full
Jul 18
Last Quarter
Jul 26
New
Aug 3
First Quarter

Hourly Weather History & Observations

Time (CDT) Temp. Heat Index Dew Point Humidity Pressure Visibility Wind Dir Wind Speed Gust Speed Precip Events Conditions
12:53 AM 62.1 °F - 59.0 °F 90% 30.06 in 10.0 mi South 5.8 mph - N/A   Clear
1:53 AM 61.0 °F - 57.9 °F 90% 30.06 in 10.0 mi South 6.9 mph - N/A   Clear
2:53 AM 62.6 °F - 57.2 °F 82% 30.07 in 10.0 mi South 5.8 mph - N/A   Clear
3:53 AM 61.0 °F - 57.0 °F 87% 30.05 in 10.0 mi South 5.8 mph - N/A   Clear
4:53 AM 60.8 °F - 57.2 °F 88% 30.06 in 10.0 mi South 5.8 mph - N/A   Clear
5:53 AM 60.1 °F - 55.9 °F 86% 30.08 in 10.0 mi South 4.6 mph - N/A   Clear
6:53 AM 62.1 °F - 57.9 °F 86% 30.09 in 10.0 mi South 5.8 mph - N/A   Clear
7:53 AM 64.4 °F - 59.0 °F 83% 30.12 in 10.0 mi South 5.8 mph - N/A   Clear
8:53 AM 69.1 °F - 61.0 °F 75% 30.13 in 10.0 mi SSW 8.1 mph - N/A   Clear
9:53 AM 73.0 °F - 61.0 °F 66% 30.13 in 10.0 mi South 8.1 mph - N/A   Clear
10:53 AM 75.9 °F - 61.0 °F 60% 30.12 in 10.0 mi South 6.9 mph - N/A   Clear
11:53 AM 77.0 °F - 61.0 °F 58% 30.12 in 10.0 mi South 9.2 mph - N/A   Clear
12:53 PM 78.1 °F - 61.0 °F 56% 30.09 in 10.0 mi South 11.5 mph - N/A   Clear
1:53 PM 79.0 °F - 60.1 °F 52% 30.10 in 10.0 mi SSW 10.4 mph - N/A   Clear
2:53 PM 80.1 °F 80.9 °F 60.1 °F 50% 30.07 in 10.0 mi SSE 10.4 mph - N/A   Clear
3:53 PM 80.1 °F 80.6 °F 57.9 °F 47% 30.08 in 10.0 mi SSE 10.4 mph - N/A   Clear
4:53 PM 79.0 °F - 59.0 °F 50% 30.06 in 10.0 mi SE 12.7 mph - N/A   Clear
5:53 PM 78.1 °F - 59.0 °F 52% 30.06 in 10.0 mi SSE 10.4 mph - N/A   Clear
6:53 PM 75.9 °F - 57.0 °F 52% 30.07 in 10.0 mi SE 8.1 mph - N/A   Clear
7:53 PM 72.0 °F - 55.9 °F 57% 30.07 in 10.0 mi SSE 6.9 mph - N/A   Clear
8:53 PM 68.0 °F - 57.9 °F 70% 30.07 in 10.0 mi SE 6.9 mph - N/A   Clear
9:53 PM 66.0 °F - 57.9 °F 75% 30.09 in 10.0 mi SE 6.9 mph - N/A   Clear
10:53 PM 64.9 °F - 59.0 °F 81% 30.10 in 10.0 mi SE 5.8 mph - N/A   Clear
11:53 PM 64.0 °F - 57.9 °F 80% 30.10 in 10.0 mi SSE 6.9 mph - N/A   Clear